www.pogodaiklimat.ru

Погода и климат >> Архив погоды >> Россия >> Карелия >> Калевала


АРХИВ ПОГОДЫ в Калевале

Время (UTC), дата Ветер
(напр.,м/с)
 
Видим.   Явления Облачность Т
(С)
Тd
(С)
f
(%)
Тe
(С)
Тes
(С)
Комфортность P
(гПа)
Po
(гПа)
Тmin
(С)
Tmax
(С)
R
(мм)
R24
(мм)
S
(см)
06 13.08 ЮВ 2 10 км слаб. дождь 10/10 330 м
[Frnb Ns]
+14.1 +13.1 94 +14 +14 1007.3 993.1 +12.1 1
09 13.08 ЮВ 4 50 км {дождь} 10/10 1200 м
[Cb calv]
+15.5 +12.8 84 +15 +15 1007.3 993.2
12 13.08 ЮВ 2 50 км гроза без осадков {ливн. осадки} 10/10 1500 м
[Cb calv]
+15.8 +13.1 84 +16 +16 1006.5 992.4
15 13.08 ЮВ 2 50 км {гроза, ливн. осадки} 8/6 900 м
[Cb calv Ci fib]
+15.4 +12.1 81 +15 +16 1005.4 991.3 1
18 13.08 В 1 50 км {гроза, ливн. осадки} 9/4 1000 м
[Sc diur, vesp Ac trans]
+13.1 +11.7 91 +13 +13 1005.4 991.2 +16.7 0.7
21 13.08 штиль 0 6000 м дымка {ливн. осадки} 9/5 1000 м
[Cb calv Ac trans]
+11.3 +10.7 96 +11 +11 1005.0 990.7
00 14.08 штиль 0 7000 м дымка {ливн. осадки} 9/5 600 м
[Sc Ac trans]
+10.2 +9.7 97 +9 +9 1004.6 990.2
03 14.08 ЮВ 1 7000 м дымка 9/4 1000 м
[Sc Ac trans]
+9.9 +9.4 97 +9 +9 1004.6 990.2 +9.3 0.5
06 14.08 З 3 50 км 10/10 210 м
[Cb cap]
+14.0 +12.3 89 +13 +13 1004.2 990.0 +9.3
09 14.08 ЮВ 2 50 км 10/4 1000 м
[Sc diur, vesp Ac trans Cc]
+16.1 +12.6 80 +16 +19 1003.6 989.6
12 14.08 ЮЗ 3 50 км 8/8 700 м
[Cb cap Ac trans]
+18.7 +12.7 68 +20 +21 1003.0 989.1
15 14.08 Ю 3 50 км {гроза} 8/5 1000 м
[Sc diur, vesp Ac trans Ci fib]
+19.3 +11.1 59 +21 +21 комфорт 1002.9 989.0
18 14.08 Ю 2 50 км {гроза} 3/3 1000 м
[Cb cap]
+14.2 +11.9 86 +14 +14 1002.8 988.7 +20.2
21 14.08 С 1 50 км гроза без осадков 9/9 1200 м
[Cb cap]
+12.1 +10.7 91 +12 +12 1003.3 989.1
00 15.08 Ю 2 50 км {гроза} 10/10 1200 м
[Cb cap]
+12.3 +11.5 95 +11 +11 1002.8 988.6
03 15.08 Ю 3 50 км 10/10 450 м
[Cb calv]
+12.0 +9.7 86 +10 +10 1002.3 988.1 +9.1
06 15.08 Ю 2 50 км 10/10 360 м
[Sc]
+12.6 +10.1 85 +12 +12 1001.7 987.5 +9.1
09 15.08 ЮВ 2 50 км 10/10 450 м
[Sc]
+14.4 +10.6 78 +14 +14 1001.2 987.1
12 15.08 ЮВ 1 50 км в посл. час ливневой дождь 10/10 270 м
[Cb cap]
+14.0 +12.5 91 +14 +14 1001.2 987.1
15 15.08 ЮЗ 2 50 км {ливн. осадки} 10/10 300 м
[Cb cap]
+13.8 +12.1 89 +13 +13 1001.9 987.8 3
18 15.08 З 1 11 км слаб. ливневой дождь 10/10 720 м
[Cb cap]
+12.4 +11.3 93 +12 +12 1002.6 988.4 +15.0 3
21 15.08 З 2 9000 м слаб. дождь 10/10 540 м
[Frnb Ns]
+11.7 +11.1 96 +10 +10 1003.2 988.9
00 16.08 З 2 50 км {ливн. осадки, дождь} 10/10 1110 м
[Sc]
+11.8 +11.0 95 +11 +11 1004.0 989.7
03 16.08 СЗ 1 40 км 10/10 120 м
[St]
+11.7 +11.1 96 +11 +11 1004.8 990.5 +11.4 3
06 16.08 С 2 50 км 8/6 1000 м
[Cb cap Ci fib]
+14.3 +12.2 87 +14 +15 1006.4 992.2 +11.4 3
09 16.08 С 2 50 км 8/8 660 м
[Cb cap]
+14.3 +10.8 79 +14 +15 1008.3 994.1
12 16.08 ЮВ 3 50 км 8/6 960 м
[Cb cap Ac trans]
+15.8 +10.7 72 +15 +17 1009.4 995.3
15 16.08 Ю 1 50 км 8/8 1170 м
[Cb calv]
+16.0 +11.4 74 +17 +17 1010.6 996.5
18 16.08 штиль 0 50 км 9/9 1200 м
[Sc]
+13.5 +11.9 90 +13 +13 1011.9 997.6 +18.9
21 16.08 штиль 0 50 км 9/9 1200 м
[Sc]
+11.9 +11.1 95 +11 +11 1012.9 998.5
00 17.08 Ю 1 50 км 8/8 1200 м
[Sc]
+12.8 +11.9 94 +13 +13 1013.7 999.4
03 17.08 штиль 0 400 м туман ?/? +9.6 +9.1 97 +9 +9 1014.6 1000.1 +9.4
06 17.08 Ю 2 30 км {туман} 8/3 1000 м
[Sc Ac trans Ci sp]
+15.6 +12.2 80 +16 +17 1014.6 1000.4 +9.4
09 17.08 Ю 1 50 км {ливн. осадки} 10/5 600 м
[Cb calv Ac trans]
+15.4 +12.2 81 +16 +18 1015.1 1000.9
12 17.08 Ю 4 50 км {ливн. осадки} 9/4 1000 м
[Sc diur, vesp Ac trans]
+19.2 +11.5 61 +20 +21 1014.6 1000.6
15 17.08 Ю 2 50 км 9/3 1000 м
[Cu hum Ac trans Ci fib]
+19.4 +12.0 62 +21 +22 комфорт 1013.9 999.9 0.0
18 17.08 Ю 2 50 км 8/0
[Ac trans Cc]
+15.2 +11.0 76 +15 +15 1014.5 1000.2 +20.1 0.0
21 17.08 ЮВ 1 50 км 6/0
[Ac As]
+13.3 +11.4 88 +13 +13 1014.9 1000.6
00 18.08 Ю 2 50 км 6/0
[Ac trans Ci fib]
+14.3 +11.5 83 +14 +14 1015.4 1001.1
03 18.08 Ю 3 50 км 4/0
[Ac trans]
+13.6 +11.2 85 +12 +13 1015.5 1001.2 +11.7
06 18.08 ЮВ 3 50 км 4/0
[Ac trans Ci fib]
+15.9 +10.8 72 +15 +18 1015.8 1001.6 +11.7
09 18.08 Ю 4 50 км 5/0
[Ac trans Cc]
+21.1 +11.9 56 +23 +27 комфорт 1015.5 1001.5
12 18.08 Ю 4 50 км 3/1 1000 м
[Sc diur, vesp Ci fib]
+22.6 +10.6 47 +25 +28 комфорт 1014.7 1000.8
15 18.08 Ю 4 50 км 3/0
[Ac trans Ci fib]
+21.1 +9.6 48 +22 +24 комфорт 1014.1 1000.1
18 18.08 Ю 2 50 км 6/0
[Ac trans Ci fib]
+16.2 +9.6 65 +16 +16 1014.3 1000.1 +22.7
21 18.08 Ю 3 50 км 8/0
[Ac trans]
+15.6 +9.6 67 +15 +15 1014.2 1000.0
00 19.08 ЮВ 2 50 км 9/0
[Ac trans]
+12.5 +9.2 80 +12 +12 1014.2 999.8
03 19.08 В 1 50 км 8/0
[Ac trans Ci fib]
+12.1 +9.7 85 +12 +12 1013.5 999.1 +10.9
06 19.08 ЮВ 4 50 км 3/0
[Ci fib]
+15.8 +11.0 73 +15 +17 1011.8 997.6 +10.9
09 19.08 ЮВ 4 50 км 8/0
[Ac trans Ci fib]
+18.9 +11.0 60 +20 +23 1010.3 996.3
12 19.08 ЮВ 3 50 км 10/0
[Ac trans]
+19.1 +12.4 65 +20 +22 1009.3 995.3
15 19.08 ЮВ 4 50 км {ливн. осадки} 10/10 900 м
[Cb cap]
+17.7 +12.9 73 +17 +17 1008.4 994.4 0.0
18 19.08 Ю 3 50 км {ливн. осадки} 10/10 700 м
[Cb cap]
+16.6 +13.1 80 +16 +16 1008.6 994.5 +19.6 0.1
21 19.08 Ю 2 8000 м слаб. ливневой дождь 10/10 360 м
[Cb cap]
+15.3 +14.2 93 +15 +15 1008.8 994.7
00 20.08 ЮВ 1 50 км {ливн. осадки} 9/9 630 м
[Cb cap]
+14.1 +13.5 96 +14 +14 1009.1 994.9
03 20.08 Ю 2 45 км 8/6 240 м
[Cb cap Ac trans Ci fib]
+13.4 +12.9 97 +13 +13 1010.1 995.8 +12.3 0.4

 

Местоположение метеостанции Калевала (Карелия, Россия): широта 65.22 долгота 31.15 высота над уровнем моря 120 м.

В архиве по умолчанию представлена погода в Калевале за последнюю неделю. Архивные данные за месяц целиком и за предыдущие месяцы, начиная с января 2011 года, Вы можете получить, выбрав интересующий диапазон дат из раскрывающегося списка и нажав кнопку "Ввод!".


*Определитесь, кто Вы:
робот инопланетянин человек

Внимание! Время в таблицах - всемирное. Для получения местного времени необходимо прибавить поправку, которая равна 3 ч.

Смотрите также архив погоды в соседних городах и на ближайших метеорологических станциях:

Погода в Юшкозере (Карелия, Россия) (69 км)
Погода в Кухмо Каллиёки (Финляндия) (112 км)
Погода в Зашейке (Карелия, Россия) (115 км)
Погода в Суомуссалми (Финляндия) (117 км)
Погода в Аэропорту Куусамо (Финляндия) (124 км)
Погода в Куусамо Рукатунтури (Финляндия) (140 км)
Погода в Куусамо Рука (Финляндия) (140 км)
Погода в Тайвалкоски (Финляндия) (141 км)
Погода в Энгозере (Карелия, Россия) (143 км)
Погода в Оуланке (Финляндия) (146 км)

Пояснения к столбцам:

Ветер - указаны скорость ветра в м/с - средняя за 10 мин, порывы в срок и между сроками (в фигурных скобках) и направление, откуда дует ветер: С - северный, СВ - северо-восточный, В - восточный, ЮВ - юго-восточный, Ю - южный, ЮЗ - юго-западный, З - западный, СЗ - северо-западный.
Видимость - горизонтальная дальность видимости в метрах или километрах. При видимости от 1 до 10 км при отсутствии осадков обычно наблюдается дымка, при ухудшении видимости до 1 км и менее - туман. В сухую погоду видимость может ухудшаться дымом, пылью или мглою.
Явления - указаны атмосферные явления, наблюдавшиеся в срок или в последний час перед сроком; фигурными скобками обозначены явления, наблюдавшиеся между сроками (за 1-3 часа до срока); квадратными скобками обозначены град или гололедные отложения с указанием их диаметра в мм.
Облачность - указаны через наклонную черту общая и нижняя облачность в баллах и высота нижней границы облаков в метрах; квадратными скобками обозначены формы облаков: Ci - перистые, Cs - перисто-слоистые, Cc - перисто-кучевые, Ac - высококучевые, As - высокослоистые, Sc - слоисто-кучевые, Ns - слоисто-дождевые, Cu - кучевые, Cb - кучево-дождевые. Подробнее классификацию облаков см. в Атласе облаков (PDF).
T - Температура воздуха - температура, измеренная на высоте 2 м над землей.
Td - Температура точки росы - температура, при понижении до которой содержащийся в воздухе водяной пар достигнет насыщения.
f - Относительная влажность воздуха - влажноcть воздуха, измеренная на высоте 2 м над землей.
Te - Эффективная температура - температура, которую ощущает одетый по сезону человек в тени. Характеристика душности погоды. При расчете учитывается влияние влажности воздуха и скорости ветра на теплоощущения человека.
Tes - Эффективная температура на солнце - температура, которую ощущает человек, с поправкой на солнечный нагрев. Характеристика знойности погоды. Зависит от высоты солнца над горизонтом, облачности и скорости ветра. Ночью, в пасмурную погоду, а также при ветре 12 м/с и более поправка равна нулю.
P - Атмосферное давление - приведенное к уровню моря атмосферное давление.
Po - Атмосферное давление - измеренное на уровне метеостанции атмосферное давление.
Tmin - Минимальная температура - минимум температуры воздуха на высоте 2 м над землей.
Tmax - Максимальная температура - максимум температуры воздуха на высоте 2 м над землей.
R - Количество осадков - Количество выпавших осадков за период времени, мм. При наведении курсора мыши на число - период времени, за который выпало указанное количество осадков.
R24 - Количество осадков - Количество выпавших осадков за 24 часа, мм.
S - Снежный покров - Высота снежного покрова, см. При наведении курсора мыши на число - состояние снежного покрова и степень покрытия местности в баллах.